CW3508 Weather Reports


time (UTC)temp
C
wind
direction
speed
KPH
gust
KPH
rain 1hr
cm
rain 24hr
cm
rain mn
cm
humidity
%
barometer
mb
20260505040029 16 153 0.0 1.6 0.00 0.00 0.00 78 1010.5
20260505035531 16 153 0.0 1.6 0.00 0.00 0.00 77 1010.6
20260505035036 16 153 0.0 1.6 0.00 0.00 0.00 77 1010.6
20260505034538 16 153 0.0 1.6 0.00 0.00 0.00 76 1010.6
20260505034023 16 153 0.0 3.2 0.00 0.00 0.00 75 1010.6
20260505033552 16 153 0.0 1.6 0.00 0.00 0.00 75 1010.6
20260505033020 16 153 0.0 0.0 0.00 0.00 0.00 76 1010.6
20260505032519 16 153 0.0 1.6 0.00 0.00 0.00 75 1010.5
20260505032021 16 153 0.0 1.6 0.00 0.00 0.00 75 1010.5
20260505031526 16 153 0.0 1.6 0.00 0.00 0.00 74 1010.5
20260505030518 17 153 0.0 1.6 0.00 0.00 0.00 72 1010.3
20260505030027 17 153 0.0 1.6 0.00 0.00 0.00 73 1010.3
20260505025536 17 153 0.0 1.6 0.00 0.00 0.00 72 1010.6
20260505025022 17 153 0.0 0.0 0.00 0.00 0.00 71 1010.6
20260505024549 17 153 0.0 0.0 0.00 0.00 0.00 70 1010.6
20260505024034 17 153 0.0 0.0 0.00 0.00 0.00 69 1010.4
20260505023519 17 153 0.0 0.0 0.00 0.00 0.00 69 1010.4
20260505023020 17 153 0.0 0.0 0.00 0.00 0.00 69 1010.4
20260505022534 17 153 0.0 0.0 0.00 0.00 0.00 68 1010.3
20260505022019 18 153 0.0 0.0 0.00 0.00 0.00 67 1010.3
20260505021536 18 153 0.0 1.6 0.00 0.00 0.00 67 1010.3
20260505021042 18 153 0.0 1.6 0.00 0.00 0.00 66 1010.2
20260505020546 18 153 0.0 0.0 0.00 0.00 0.00 65 1010.2
20260505020019 18 153 0.0 1.6 0.00 0.00 0.00 64 1010.2
20260505015522 18 153 0.0 1.6 0.00 0.00 0.00 65 1010.2
20260505015024 19 153 0.0 1.6 0.00 0.00 0.00 64 1010.2
20260505014518 19 153 0.0 0.0 0.00 0.00 0.00 62 1010.2
20260505014024 20 153 0.0 0.0 0.00 0.00 0.00 61 1009.9
20260505013532 20 153 0.0 0.0 0.00 0.00 0.00 61 1009.9
20260505013036 20 153 0.0 0.0 0.00 0.00 0.00 62 1009.9
20260505012548 20 153 0.0 1.6 0.00 0.00 0.00 62 1009.8
20260505012034 20 153 0.0 1.6 0.00 0.00 0.00 62 1009.8
20260505011545 20 153 0.0 0.0 0.00 0.00 0.00 62 1009.8
20260505011040 21 153 0.0 1.6 0.00 0.00 0.00 60 1009.7
20260505010544 21 153 0.0 1.6 0.00 0.00 0.00 60 1009.7
20260505010029 21 153 0.0 0.0 0.00 0.00 0.00 60 1009.7
20260505005536 21 153 0.0 1.6 0.00 0.00 0.00 55 1009.7
20260505005052 21 153 0.0 1.6 0.00 0.00 0.00 54 1009.7
20260505004558 21 153 0.0 1.6 0.00 0.00 0.00 54 1009.7
20260505004035 21 153 0.0 1.6 0.00 0.00 0.00 54 1009.7
20260505003521 22 153 0.0 3.2 0.00 0.00 0.00 53 1009.7
20260505003022 22 153 1.6 4.8 0.00 0.00 0.00 54 1009.7
20260505002556 22 153 1.6 4.8 0.00 0.00 0.00 53 1009.6
20260505002019 22 162 1.6 4.8 0.00 0.00 0.00 53 1009.6
20260505001541 22 162 3.2 4.8 0.00 0.00 0.00 51 1009.6
20260505001042 22 164 1.6 3.2 0.00 0.00 0.00 53 1009.7
20260505000544 23 164 1.6 6.4 0.00 0.00 0.00 54 1009.7
20260505000039 23 164 1.6 6.4 0.00 0.00 0.00 52 1009.7
20260504235517 23 150 1.6 4.8 0.00 0.00 0.00 51 1009.7
20260504235034 23 150 0.0 3.2 0.00 0.00 0.00 52 1009.7
20260504234531 23 150 0.0 4.8 0.00 0.00 0.00 51 1009.7
20260504234038 23 150 1.6 11.3 0.00 0.00 0.00 49 1009.7
20260504233517 23 145 3.2 11.3 0.00 0.00 0.00 51 1009.7
20260504233018 24 201 0.0 3.2 0.00 0.00 0.00 49 1009.7
20260504232534 24 201 1.6 3.2 0.00 0.00 0.00 49 1009.7
20260504232042 24 200 1.6 4.8 0.00 0.00 0.00 47 1009.7
20260504231531 24 202 1.6 6.4 0.00 0.00 0.00 46 1009.7
20260504231052 24 120 1.6 6.4 0.00 0.00 0.00 45 1009.8
20260504230521 24 167 3.2 6.4 0.00 0.00 0.00 45 1009.8
20260504230022 24 113 1.6 6.4 0.00 0.00 0.00 47 1009.8
20260504225017 25 198 1.6 4.8 0.00 0.00 0.00 47 1009.8
20260504224524 25 198 1.6 4.8 0.00 0.00 0.00 46 1009.8
20260504224101 25 136 1.6 6.4 0.00 0.00 0.00 45 1009.9
20260504223525 25 156 1.6 8.0 0.00 0.00 0.00 46 1009.9
20260504223036 25 150 1.6 8.0 0.00 0.00 0.00 46 1009.9
20260504222532 25 133 1.6 9.7 0.00 0.00 0.00 44 1010.0
20260504222021 25 153 3.2 9.7 0.00 0.00 0.00 44 1010.0
20260504221531 25 155 1.6 9.7 0.00 0.00 0.00 43 1010.0
20260504221035 25 161 1.6 9.7 0.00 0.00 0.00 45 1010.2
20260504220049 25 132 1.6 4.8 0.00 0.00 0.00 42 1010.2
20260504215533 25 164 1.6 11.3 0.00 0.00 0.00 43 1010.2
20260504215034 25 138 4.8 12.9 0.00 0.00 0.00 43 1010.2
20260504214521 25 150 3.2 12.9 0.00 0.00 0.00 45 1010.2
20260504214021 25 183 4.8 11.3 0.00 0.00 0.00 44 1010.3
20260504213533 25 157 1.6 8.0 0.00 0.00 0.00 44 1010.3
20260504213023 25 146 3.2 8.0 0.00 0.00 0.00 47 1010.3
20260504212555 25 166 3.2 8.0 0.00 0.00 0.00 44 1010.3
20260504212033 25 157 1.6 8.0 0.00 0.00 0.00 44 1010.3
20260504211541 25 55 1.6 8.0 0.00 0.00 0.00 46 1010.3
20260504211031 25 188 1.6 8.0 0.00 0.00 0.00 45 1010.3
20260504210516 25 167 3.2 8.0 0.00 0.00 0.00 46 1010.3
20260504210049 25 252 1.6 9.7 0.00 0.00 0.00 47 1010.3
20260504205042 25 242 1.6 9.7 0.00 0.00 0.00 44 1010.6
20260504204523 25 126 3.2 9.7 0.00 0.00 0.00 43 1010.6
20260504204027 25 136 3.2 6.4 0.00 0.00 0.00 46 1010.6
20260504203514 25 133 3.2 6.4 0.00 0.00 0.00 45 1010.6
20260504203017 25 167 3.2 11.3 0.00 0.00 0.00 45 1010.6
20260504202516 25 184 3.2 11.3 0.00 0.00 0.00 45 1010.7
20260504202052 25 152 3.2 8.0 0.00 0.00 0.00 46 1010.7
20260504201515 25 161 1.6 6.4 0.00 0.00 0.00 45 1010.7
20260504201022 25 136 1.6 8.0 0.00 0.00 0.00 48 1010.8
20260504200019 25 210 3.2 8.0 0.00 0.00 0.00 43 1010.8
20260504195518 25 161 1.6 9.7 0.00 0.00 0.00 44 1011.2
20260504195048 25 159 1.6 9.7 0.00 0.00 0.00 44 1011.2
20260504194541 25 265 1.6 8.0 0.00 0.00 0.00 45 1011.2
20260504194045 25 211 1.6 6.4 0.00 0.00 0.00 48 1011.3
20260504193533 25 161 3.2 8.0 0.00 0.00 0.00 44 1011.3
20260504192545 25 142 1.6 11.3 0.00 0.00 0.00 45 1011.5
20260504192036 26 299 1.6 6.4 0.00 0.00 0.00 44 1011.5
20260504191534 26 178 1.6 8.0 0.00 0.00 0.00 43 1011.5
20260504191020 26 259 4.8 9.7 0.00 0.00 0.00 43 1011.8
20260504190523 26 190 3.2 6.4 0.00 0.00 0.00 42 1011.8
20260504190028 26 229 3.2 6.4 0.00 0.00 0.00 44 1011.8
20260504185520 26 157 3.2 8.0 0.00 0.00 0.00 45 1011.9
20260504185050 26 209 1.6 8.0 0.00 0.00 0.00 45 1011.9
20260504184516 26 167 3.2 8.0 0.00 0.00 0.00 46 1011.9
20260504184028 26 196 1.6 8.0 0.00 0.00 0.00 49 1012.2
20260504183541 26 208 1.6 8.0 0.00 0.00 0.00 46 1012.2
20260504183047 26 209 3.2 8.0 0.00 0.00 0.00 46 1012.2
20260504182516 26 152 1.6 4.8 0.00 0.00 0.00 47 1012.4
20260504182036 26 148 3.2 4.8 0.00 0.00 0.00 45 1012.4
20260504181530 26 127 1.6 3.2 0.00 0.00 0.00 46 1012.4
20260504181040 26 127 0.0 3.2 0.00 0.00 0.00 44 1012.5
20260504180533 27 127 1.6 4.8 0.00 0.00 0.00 47 1012.5
20260504180034 26 118 1.6 4.8 0.00 0.00 0.00 49 1012.5
20260504175531 26 225 1.6 4.8 0.00 0.00 0.00 49 1012.8
20260504175019 26 156 0.0 4.8 0.00 0.00 0.00 50 1012.8
20260504174535 25 172 1.6 6.4 0.00 0.00 0.00 45 1012.8
20260504174034 25 170 1.6 8.0 0.00 0.00 0.00 46 1012.9
20260504173533 25 127 1.6 8.0 0.00 0.00 0.00 46 1012.9
20260504173019 25 162 1.6 8.0 0.00 0.00 0.00 50 1012.9
20260504172533 25 155 1.6 8.0 0.00 0.00 0.00 45 1013.1
20260504172056 25 178 3.2 6.4 0.00 0.00 0.00 46 1013.1
20260504171018 25 223 1.6 6.4 0.00 0.00 0.00 49 1013.4
20260504170519 25 169 1.6 6.4 0.00 0.00 0.00 48 1013.4
20260504151043 19 153 1.6 8.0 0.00 0.00 0.00 70 1014.1
20260504150529 18 109 3.2 8.0 0.00 0.00 0.00 70 1014.1
20260504141025 13 154 1.6 4.8 0.00 0.00 0.00 87 1014.6
20260504140541 13 154 1.6 3.2 0.00 0.00 0.00 88 1014.6
20260504130520 10 152 0.0 0.0 0.00 0.00 0.00 94 1014.8
20260504110522 8 152 0.0 0.0 0.00 0.00 0.00 92 1014.0
20260504100600 8 152 0.0 0.0 0.00 0.00 0.00 92 1014.0
20260504081536 9 152 0.0 0.0 0.00 0.00 0.00 91 1013.9
20260504081037 9 152 0.0 0.0 0.00 0.00 0.00 91 1014.0
20260504080538 9 152 0.0 0.0 0.00 0.00 0.00 91 1014.0
20260504050536 11 152 0.0 1.6 0.00 0.00 0.00 87 1015.0
20260504045530 11 152 0.0 0.0 0.00 0.00 0.00 86 1015.0
20260504045034 11 152 0.0 0.0 0.00 0.00 0.00 86 1015.0
20260504044522 11 152 0.0 0.0 0.00 0.00 0.00 86 1015.0
20260504044033 11 152 0.0 1.6 0.00 0.00 0.00 86 1015.3
20260504043547 11 152 0.0 1.6 0.00 0.00 0.00 85 1015.3
20260504043059 11 152 0.0 0.0 0.00 0.00 0.00 85 1015.3
20260504042543 11 152 0.0 1.6 0.00 0.00 0.00 85 1015.3
20260504042055 11 152 0.0 1.6 0.00 0.00 0.00 85 1015.3
20260504041523 12 152 0.0 1.6 0.00 0.00 0.00 84 1015.3
20260504041028 12 152 0.0 1.6 0.00 0.00 0.00 84 1015.3
20260504040534 12 152 0.0 0.0 0.00 0.00 0.00 84 1015.3